Location: Bacharowice
(49.9333°N, 19.5833°E)
Time: 09:17:50
(UTC+00:00)

ERS-1 Rocket - Pass Details

Date: 11 May 2021
Orbit: 753 x 757 km, 98.4° (Epoch: 21 June)

Event Time Altitude Azimuth Distance (km) Brightness Sun altitude
Exits shadow 20:30:20 22° 182° (S) 1,620 4.2 -16.3°
Maximum altitude 20:33:35 63° 258° (WSW) 841 3.2 -16.6°
Drops below altitude 10° 20:38:36 10° 340° (NNW) 2,295 6.7 -17.0°
Sets 20:40:57 0° 344° (NNW) 3,225 7.8 -17.2°
